Time,TemperatureF,DewpointF,PressureIn,WindDirection,WindDirectionDegrees,WindSpeedMPH,WindSpeedGustMPH,Humidity,HourlyPrecipIn,Conditions,Clouds,dailyrainin,SolarRadiationWatts/m^2,SoftwareType,DateUTC
2013-09-27 00:00:00,49.9,47.4,30.11,ENE,76,0.0,0.0,91,0.00,,,0.00,0,Wunderground v.1.15,2013-09-27 04:00:00,
2013-09-27 00:05:00,49.8,47.3,30.10,ENE,76,0.0,0.0,91,0.00,,,0.00,0,Wunderground v.1.15,2013-09-27 04:05:00,
2013-09-27 00:10:00,49.7,47.5,30.10,ENE,76,0.0,0.0,92,0.00,,,0.00,0,Wunderground v.1.15,2013-09-27 04:10:00,
2013-09-27 00:15:00,49.7,47.5,30.10,ENE,76,0.0,0.0,92,0.00,,,0.00,0,Wunderground v.1.15,2013-09-27 04:15:00,
2013-09-27 00:25:00,49.5,47.3,30.11,ENE,76,0.0,0.0,92,0.00,,,0.00,0,Wunderground v.1.15,2013-09-27 04:25:00,
2013-09-27 00:30:00,49.5,47.3,30.11,ENE,76,0.0,0.0,92,0.00,,,0.00,0,Wunderground v.1.15,2013-09-27 04:30:00,
2013-09-27 00:35:00,49.4,47.2,30.11,ENE,76,0.0,0.0,92,0.00,,,0.00,0,Wunderground v.1.15,2013-09-27 04:35:00,
2013-09-27 00:39:00,49.4,47.2,30.11,ENE,76,0.0,0.0,92,0.00,,,0.00,0,Wunderground v.1.15,2013-09-27 04:39:00,
2013-09-27 00:45:00,49.3,47.1,30.11,ENE,76,0.0,0.0,92,0.00,,,0.00,0,Wunderground v.1.15,2013-09-27 04:45:00,
2013-09-27 00:50:00,49.3,47.1,30.11,ENE,76,0.0,0.0,92,0.00,,,0.00,0,Wunderground v.1.15,2013-09-27 04:50:00,
2013-09-27 01:05:00,49.2,47.0,30.11,ENE,76,0.0,0.0,92,0.00,,,0.00,0,Wunderground v.1.15,2013-09-27 05:05:00,
2013-09-27 01:15:00,49.1,46.9,30.11,ENE,76,0.0,0.0,92,0.00,,,0.00,0,Wunderground v.1.15,2013-09-27 05:15:00,
2013-09-27 01:25:00,49.0,46.8,30.11,ENE,76,0.0,0.0,92,0.00,,,0.00,0,Wunderground v.1.15,2013-09-27 05:25:00,
2013-09-27 01:35:00,49.0,46.8,30.12,ENE,76,0.0,0.0,92,0.00,,,0.00,0,Wunderground v.1.15,2013-09-27 05:35:00,
2013-09-27 01:45:00,48.9,46.7,30.12,ENE,76,0.0,0.0,92,0.00,,,0.00,0,Wunderground v.1.15,2013-09-27 05:45:00,
2013-09-27 01:55:00,48.8,46.6,30.12,ENE,76,0.0,0.0,92,0.00,,,0.00,0,Wunderground v.1.15,2013-09-27 05:55:00,
2013-09-27 02:05:00,48.7,46.5,30.12,ENE,76,0.0,0.0,92,0.00,,,0.00,0,Wunderground v.1.15,2013-09-27 06:05:00,
2013-09-27 02:10:00,48.7,46.5,30.12,ENE,76,0.0,0.0,92,0.00,,,0.00,0,Wunderground v.1.15,2013-09-27 06:10:00,
2013-09-27 02:20:00,48.6,46.4,30.12,ENE,76,0.0,0.0,92,0.00,,,0.00,0,Wunderground v.1.15,2013-09-27 06:20:00,
2013-09-27 02:25:00,48.6,46.4,30.12,ENE,76,0.0,0.0,92,0.00,,,0.00,0,Wunderground v.1.15,2013-09-27 06:25:00,
2013-09-27 02:35:00,48.5,46.3,30.12,ENE,76,0.0,0.0,92,0.00,,,0.00,0,Wunderground v.1.15,2013-09-27 06:35:00,
2013-09-27 02:45:00,48.4,46.2,30.12,ENE,76,0.0,0.0,92,0.00,,,0.00,0,Wunderground v.1.15,2013-09-27 06:45:00,
2013-09-27 02:50:00,48.3,46.1,30.12,ENE,76,0.0,0.0,92,0.00,,,0.00,0,Wunderground v.1.15,2013-09-27 06:50:00,
2013-09-27 02:55:00,48.3,46.1,30.12,ENE,76,0.0,0.0,92,0.00,,,0.00,0,Wunderground v.1.15,2013-09-27 06:55:00,
2013-09-27 03:05:00,48.2,46.0,30.12,ENE,76,0.0,0.0,92,0.00,,,0.00,0,Wunderground v.1.15,2013-09-27 07:05:00,
2013-09-27 03:10:00,48.2,46.0,30.12,ENE,76,0.0,0.0,92,0.00,,,0.00,0,Wunderground v.1.15,2013-09-27 07:10:00,
2013-09-27 03:20:00,48.3,46.1,30.13,ENE,76,0.0,0.0,92,0.00,,,0.00,0,Wunderground v.1.15,2013-09-27 07:20:00,
2013-09-27 03:25:00,48.4,46.2,30.13,ENE,76,0.0,0.0,92,0.00,,,0.00,0,Wunderground v.1.15,2013-09-27 07:25:00,
2013-09-27 03:30:00,48.5,46.6,30.13,ENE,76,0.0,0.0,93,0.00,,,0.00,0,Wunderground v.1.15,2013-09-27 07:30:00,
2013-09-27 03:40:00,48.7,46.8,30.13,ENE,76,0.0,0.0,93,0.00,,,0.00,0,Wunderground v.1.15,2013-09-27 07:40:00,
2013-09-27 03:45:00,48.8,46.9,30.13,ENE,76,0.0,0.0,93,0.00,,,0.00,0,Wunderground v.1.15,2013-09-27 07:45:00,
2013-09-27 03:55:00,49.4,47.5,30.13,ENE,76,0.0,0.0,93,0.00,,,0.00,0,Wunderground v.1.15,2013-09-27 07:55:00,
2013-09-27 04:00:00,49.6,47.7,30.13,ENE,76,0.0,0.0,93,0.00,,,0.00,0,Wunderground v.1.15,2013-09-27 08:00:00,
2013-09-27 04:10:00,49.8,47.9,30.13,ENE,76,0.0,0.0,93,0.00,,,0.00,0,Wunderground v.1.15,2013-09-27 08:10:00,
2013-09-27 04:15:00,50.0,48.1,30.13,ENE,76,0.0,0.0,93,0.00,,,0.00,0,Wunderground v.1.15,2013-09-27 08:15:00,
2013-09-27 04:25:00,50.2,48.3,30.13,ENE,76,0.0,0.0,93,0.00,,,0.00,0,Wunderground v.1.15,2013-09-27 08:25:00,
2013-09-27 04:35:00,50.7,48.7,30.13,ENE,76,0.0,0.0,93,0.00,,,0.00,0,Wunderground v.1.15,2013-09-27 08:35:00,
2013-09-27 04:40:00,50.9,48.9,30.13,ENE,76,0.0,0.0,93,0.00,,,0.00,0,Wunderground v.1.15,2013-09-27 08:40:00,
2013-09-27 04:55:00,51.2,49.2,30.14,ENE,76,0.0,0.0,93,0.00,,,0.00,0,Wunderground v.1.15,2013-09-27 08:55:00,
2013-09-27 05:00:00,51.2,49.2,30.14,ENE,76,0.0,0.0,93,0.00,,,0.00,0,Wunderground v.1.15,2013-09-27 09:00:00,
2013-09-27 05:10:00,51.6,49.6,30.14,ENE,76,0.0,0.0,93,0.00,,,0.00,0,Wunderground v.1.15,2013-09-27 09:10:00,
2013-09-27 05:20:00,51.8,49.8,30.14,ENE,76,0.0,0.0,93,0.00,,,0.00,0,Wunderground v.1.15,2013-09-27 09:20:00,
2013-09-27 05:30:00,52.1,50.1,30.14,ENE,76,0.0,0.0,93,0.00,,,0.00,0,Wunderground v.1.15,2013-09-27 09:30:00,
2013-09-27 05:40:00,52.3,50.3,30.15,ENE,76,0.0,0.0,93,0.00,,,0.00,0,Wunderground v.1.15,2013-09-27 09:40:00,
2013-09-27 05:45:00,52.4,50.4,30.15,ENE,76,0.0,0.0,93,0.00,,,0.00,0,Wunderground v.1.15,2013-09-27 09:45:00,
2013-09-27 05:55:00,52.6,50.6,30.15,ENE,76,0.0,0.0,93,0.00,,,0.00,0,Wunderground v.1.15,2013-09-27 09:55:00,
2013-09-27 06:05:00,52.8,50.8,30.16,ENE,76,0.0,0.0,93,0.00,,,0.00,0,Wunderground v.1.15,2013-09-27 10:05:00,
2013-09-27 06:15:00,53.1,51.1,30.16,ENE,76,0.0,0.0,93,0.00,,,0.00,0,Wunderground v.1.15,2013-09-27 10:15:00,
2013-09-27 06:25:00,53.2,51.2,30.16,ENE,76,0.0,0.0,93,0.00,,,0.00,0,Wunderground v.1.15,2013-09-27 10:25:00,
2013-09-27 06:30:00,53.3,51.3,30.16,ENE,76,0.0,0.0,93,0.00,,,0.00,0,Wunderground v.1.15,2013-09-27 10:30:00,
2013-09-27 06:40:00,53.5,51.5,30.17,ENE,76,0.0,0.0,93,0.00,,,0.00,0,Wunderground v.1.15,2013-09-27 10:40:00,
2013-09-27 06:45:00,53.7,51.7,30.17,ENE,76,0.0,0.0,93,0.00,,,0.00,0,Wunderground v.1.15,2013-09-27 10:45:00,
2013-09-27 06:55:00,53.8,51.8,30.17,ENE,76,0.0,0.0,93,0.00,,,0.00,0,Wunderground v.1.15,2013-09-27 10:55:00,
2013-09-27 07:00:00,53.8,51.8,30.17,ENE,76,0.0,0.0,93,0.00,,,0.00,0,Wunderground v.1.15,2013-09-27 11:00:00,
2013-09-27 07:05:00,53.9,51.9,30.17,ENE,76,0.0,0.0,93,0.00,,,0.00,0,Wunderground v.1.15,2013-09-27 11:05:00,
2013-09-27 07:15:00,54.3,52.3,30.17,East,100,0.0,0.0,93,0.00,,,0.00,5,Wunderground v.1.15,2013-09-27 11:15:00,
2013-09-27 07:20:00,54.4,52.4,30.18,East,100,0.0,0.0,93,0.00,,,0.00,5,Wunderground v.1.15,2013-09-27 11:20:00,
2013-09-27 07:30:00,54.8,52.8,30.18,NE,47,1.0,1.0,93,0.00,,,0.00,9,Wunderground v.1.15,2013-09-27 11:30:00,
2013-09-27 07:35:00,55.0,53.0,30.18,East,84,0.0,1.0,93,0.00,,,0.00,11,Wunderground v.1.15,2013-09-27 11:35:00,
2013-09-27 07:40:00,55.4,53.1,30.18,ENE,73,0.0,0.0,92,0.00,,,0.00,12,Wunderground v.1.15,2013-09-27 11:40:00,
2013-09-27 07:45:00,55.8,53.5,30.18,ENE,73,0.0,0.0,92,0.00,,,0.00,14,Wunderground v.1.15,2013-09-27 11:45:00,
2013-09-27 07:55:00,56.4,53.8,30.19,ENE,73,0.0,0.0,91,0.00,,,0.00,14,Wunderground v.1.15,2013-09-27 11:55:00,
2013-09-27 08:00:00,56.6,54.0,30.19,East,87,0.0,0.0,91,0.00,,,0.00,18,Wunderground v.1.15,2013-09-27 12:00:00,
2013-09-27 08:10:00,56.9,54.0,30.19,East,84,0.0,2.0,90,0.00,,,0.00,23,Wunderground v.1.15,2013-09-27 12:10:00,
2013-09-27 08:20:00,57.3,53.8,30.20,East,80,1.0,2.0,88,0.00,,,0.00,25,Wunderground v.1.15,2013-09-27 12:20:00,
2013-09-27 08:30:00,57.6,53.8,30.20,East,79,1.0,1.0,87,0.00,,,0.00,28,Wunderground v.1.15,2013-09-27 12:30:00,
2013-09-27 08:40:00,57.9,54.1,30.20,East,85,1.0,1.0,87,0.00,,,0.00,32,Wunderground v.1.15,2013-09-27 12:40:00,
2013-09-27 08:45:00,58.1,54.2,30.20,East,80,1.0,1.0,87,0.00,,,0.00,35,Wunderground v.1.15,2013-09-27 12:45:00,
2013-09-27 08:50:00,58.1,53.9,30.20,East,84,1.0,1.0,86,0.00,,,0.00,39,Wunderground v.1.15,2013-09-27 12:50:00,
2013-09-27 09:00:00,58.4,54.2,30.21,NNE,30,1.0,1.0,86,0.00,,,0.00,47,Wunderground v.1.15,2013-09-27 13:00:00,
2013-09-27 09:10:00,58.6,54.1,30.21,East,92,1.0,1.0,85,0.00,,,0.00,47,Wunderground v.1.15,2013-09-27 13:10:00,
2013-09-27 09:20:00,58.9,53.7,30.22,ENE,65,2.0,2.0,83,0.00,,,0.00,63,Wunderground v.1.15,2013-09-27 13:20:00,
2013-09-27 09:25:00,58.9,53.7,30.22,East,89,2.0,2.0,83,0.00,,,0.00,60,Wunderground v.1.15,2013-09-27 13:25:00,
2013-09-27 09:35:00,59.2,54.4,30.22,East,92,1.0,1.0,84,0.00,,,0.00,77,Wunderground v.1.15,2013-09-27 13:35:00,
2013-09-27 09:40:00,59.4,54.2,30.22,East,82,0.0,2.0,83,0.00,,,0.00,76,Wunderground v.1.15,2013-09-27 13:40:00,
2013-09-27 09:50:00,59.7,54.5,30.22,North,355,3.0,3.0,83,0.00,,,0.00,105,Wunderground v.1.15,2013-09-27 13:50:00,
2013-09-27 10:00:00,60.0,54.5,30.22,ENE,72,1.0,2.0,82,0.00,,,0.00,125,Wunderground v.1.15,2013-09-27 14:00:00,
2013-09-27 10:10:00,60.3,54.4,30.22,NNE,31,2.0,2.0,81,0.00,,,0.00,146,Wunderground v.1.15,2013-09-27 14:10:00,
2013-09-27 10:20:00,60.6,54.7,30.22,ENE,75,1.0,1.0,81,0.00,,,0.00,151,Wunderground v.1.15,2013-09-27 14:20:00,
2013-09-27 10:30:00,60.9,55.0,30.22,ENE,76,1.0,2.0,81,0.00,,,0.00,151,Wunderground v.1.15,2013-09-27 14:30:00,
2013-09-27 10:40:00,61.1,55.2,30.22,ENE,76,2.0,2.0,81,0.00,,,0.00,178,Wunderground v.1.15,2013-09-27 14:40:00,
2013-09-27 10:50:00,61.3,54.0,30.22,ENE,74,2.0,2.0,77,0.00,,,0.00,193,Wunderground v.1.15,2013-09-27 14:50:00,
2013-09-27 10:55:00,61.4,53.8,30.22,East,80,2.0,3.0,76,0.00,,,0.00,183,Wunderground v.1.15,2013-09-27 14:55:00,
2013-09-27 11:05:00,61.7,53.7,30.22,NW,326,3.0,6.0,75,0.00,,,0.00,209,Wunderground v.1.15,2013-09-27 15:05:00,
2013-09-27 11:15:00,61.8,53.4,30.22,ESE,105,3.0,5.0,74,0.00,,,0.00,221,Wunderground v.1.15,2013-09-27 15:15:00,
2013-09-27 11:20:00,62.0,54.0,30.22,ENE,65,3.0,3.0,75,0.00,,,0.00,229,Wunderground v.1.15,2013-09-27 15:20:00,
2013-09-27 11:30:00,62.3,53.9,30.22,East,80,2.0,2.0,74,0.00,,,0.00,229,Wunderground v.1.15,2013-09-27 15:30:00,
2013-09-27 11:40:00,62.6,54.2,30.22,ENE,69,3.0,3.0,74,0.00,,,0.00,230,Wunderground v.1.15,2013-09-27 15:40:00,
2013-09-27 11:45:00,62.8,54.0,30.22,NNW,335,2.0,3.0,73,0.00,,,0.00,234,Wunderground v.1.15,2013-09-27 15:45:00,
2013-09-27 11:50:00,63.1,53.9,30.22,North,355,2.0,2.0,72,0.00,,,0.00,230,Wunderground v.1.15,2013-09-27 15:50:00,
2013-09-27 12:00:00,63.0,52.7,30.22,East,80,3.0,3.0,69,0.00,,,0.00,232,Wunderground v.1.15,2013-09-27 16:00:00,
2013-09-27 12:05:00,63.2,52.5,30.23,East,89,2.0,3.0,68,0.00,,,0.00,211,Wunderground v.1.15,2013-09-27 16:05:00,
2013-09-27 12:10:00,63.2,52.5,30.23,NE,49,3.0,3.0,68,0.00,,,0.00,213,Wunderground v.1.15,2013-09-27 16:10:00,
2013-09-27 12:15:00,63.0,52.3,30.23,ESE,108,4.0,4.0,68,0.00,,,0.00,209,Wunderground v.1.15,2013-09-27 16:15:00,
2013-09-27 12:25:00,62.9,52.2,30.22,ENE,63,3.0,4.0,68,0.00,,,0.00,223,Wunderground v.1.15,2013-09-27 16:25:00,
2013-09-27 12:35:00,63.2,52.9,30.22,NE,38,2.0,5.0,69,0.00,,,0.00,211,Wunderground v.1.15,2013-09-27 16:35:00,
2013-09-27 12:40:00,63.2,52.5,30.22,East,82,2.0,2.0,68,0.00,,,0.00,214,Wunderground v.1.15,2013-09-27 16:40:00,
2013-09-27 12:50:00,63.2,52.5,30.22,East,85,2.0,6.0,68,0.00,,,0.00,185,Wunderground v.1.15,2013-09-27 16:50:00,
2013-09-27 12:55:00,63.2,52.1,30.22,East,87,3.0,6.0,67,0.00,,,0.00,200,Wunderground v.1.15,2013-09-27 16:55:00,
2013-09-27 13:05:00,63.1,52.8,30.22,ENE,78,2.0,4.0,69,0.00,,,0.00,156,Wunderground v.1.15,2013-09-27 17:05:00,
2013-09-27 13:10:00,63.0,52.3,30.22,ENE,61,2.0,2.0,68,0.00,,,0.00,158,Wunderground v.1.15,2013-09-27 17:10:00,
2013-09-27 13:20:00,63.0,52.7,30.22,NE,54,2.0,2.0,69,0.00,,,0.00,163,Wunderground v.1.15,2013-09-27 17:20:00,
2013-09-27 13:25:00,63.0,52.3,30.21,ENE,58,2.0,2.0,68,0.00,,,0.00,188,Wunderground v.1.15,2013-09-27 17:25:00,
2013-09-27 13:30:00,63.0,52.3,30.21,ENE,59,2.0,2.0,68,0.00,,,0.00,188,Wunderground v.1.15,2013-09-27 17:30:00,
2013-09-27 13:35:00,63.0,52.3,30.21,East,86,2.0,2.0,68,0.00,,,0.00,178,Wunderground v.1.15,2013-09-27 17:35:00,
2013-09-27 13:45:00,63.1,52.8,30.21,NNW,327,2.0,7.0,69,0.00,,,0.00,225,Wunderground v.1.15,2013-09-27 17:45:00,
2013-09-27 13:50:00,63.3,53.0,30.21,East,80,2.0,2.0,69,0.00,,,0.00,294,Wunderground v.1.15,2013-09-27 17:50:00,
2013-09-27 14:00:00,63.8,52.6,30.20,East,90,1.0,1.0,67,0.00,,,0.00,388,Wunderground v.1.15,2013-09-27 18:00:00,
2013-09-27 14:10:00,64.5,53.3,30.20,ENE,71,1.0,4.0,67,0.00,,,0.00,427,Wunderground v.1.15,2013-09-27 18:10:00,
2013-09-27 14:15:00,64.6,52.6,30.20,NE,44,2.0,4.0,65,0.00,,,0.00,462,Wunderground v.1.15,2013-09-27 18:15:00,
2013-09-27 14:25:00,64.9,52.4,30.20,NE,36,2.0,3.0,64,0.00,,,0.00,325,Wunderground v.1.15,2013-09-27 18:25:00,
2013-09-27 14:30:00,64.7,52.2,30.20,East,79,3.0,3.0,64,0.00,,,0.00,274,Wunderground v.1.15,2013-09-27 18:30:00,
2013-09-27 14:35:00,64.6,52.6,30.20,East,89,3.0,3.0,65,0.00,,,0.00,214,Wunderground v.1.15,2013-09-27 18:35:00,
2013-09-27 14:45:00,64.6,53.0,30.20,ENE,69,2.0,3.0,66,0.00,,,0.00,192,Wunderground v.1.15,2013-09-27 18:45:00,
2013-09-27 14:55:00,64.4,52.8,30.20,NNE,13,2.0,4.0,66,0.00,,,0.00,214,Wunderground v.1.15,2013-09-27 18:55:00,
2013-09-27 15:05:00,64.3,52.7,30.19,NNE,13,2.0,2.0,66,0.00,,,0.00,227,Wunderground v.1.15,2013-09-27 19:05:00,
2013-09-27 15:15:00,64.4,53.6,30.19,ENE,71,1.0,3.0,68,0.00,,,0.00,171,Wunderground v.1.15,2013-09-27 19:15:00,
2013-09-27 15:20:00,64.4,53.2,30.19,East,82,1.0,1.0,67,0.00,,,0.00,192,Wunderground v.1.15,2013-09-27 19:20:00,
2013-09-27 15:25:00,64.3,52.7,30.19,NE,50,2.0,2.0,66,0.00,,,0.00,229,Wunderground v.1.15,2013-09-27 19:25:00,
2013-09-27 15:35:00,64.2,53.0,30.19,East,90,1.0,3.0,67,0.00,,,0.00,165,Wunderground v.1.15,2013-09-27 19:35:00,
2013-09-27 15:40:00,64.2,53.4,30.19,West,263,1.0,1.0,68,0.00,,,0.00,179,Wunderground v.1.15,2013-09-27 19:40:00,
2013-09-27 15:50:00,64.4,54.0,30.19,East,80,1.0,1.0,69,0.00,,,0.00,172,Wunderground v.1.15,2013-09-27 19:50:00,
2013-09-27 16:00:00,64.5,54.1,30.19,NE,36,1.0,2.0,69,0.00,,,0.00,156,Wunderground v.1.15,2013-09-27 20:00:00,
2013-09-27 16:10:00,64.4,53.2,30.19,NNE,19,1.0,1.0,67,0.00,,,0.00,121,Wunderground v.1.15,2013-09-27 20:10:00,
2013-09-27 16:15:00,64.3,53.5,30.19,East,96,2.0,2.0,68,0.00,,,0.00,105,Wunderground v.1.15,2013-09-27 20:15:00,
2013-09-27 16:25:00,63.9,53.1,30.19,ENE,62,1.0,1.0,68,0.00,,,0.00,81,Wunderground v.1.15,2013-09-27 20:25:00,
2013-09-27 16:30:00,63.9,53.5,30.19,NNE,24,0.0,1.0,69,0.00,,,0.00,86,Wunderground v.1.15,2013-09-27 20:30:00,
2013-09-27 16:35:00,63.9,53.9,30.20,WSW,245,0.0,1.0,70,0.00,,,0.00,84,Wunderground v.1.15,2013-09-27 20:35:00,
2013-09-27 16:40:00,63.9,53.5,30.20,NNW,344,1.0,1.0,69,0.00,,,0.00,76,Wunderground v.1.15,2013-09-27 20:40:00,
2013-09-27 16:50:00,63.8,53.8,30.20,North,10,0.0,0.0,70,0.00,,,0.00,79,Wunderground v.1.15,2013-09-27 20:50:00,
2013-09-27 17:00:00,63.7,53.7,30.20,NE,40,0.0,0.0,70,0.00,,,0.00,79,Wunderground v.1.15,2013-09-27 21:00:00,
2013-09-27 17:10:00,63.6,54.0,30.20,WNW,300,1.0,1.0,71,0.00,,,0.00,40,Wunderground v.1.15,2013-09-27 21:10:00,
2013-09-27 17:15:00,63.5,53.9,30.20,NNW,346,1.0,4.0,71,0.00,,,0.00,60,Wunderground v.1.15,2013-09-27 21:15:00,
2013-09-27 17:25:00,63.3,54.1,30.20,NE,51,1.0,1.0,72,0.00,,,0.00,37,Wunderground v.1.15,2013-09-27 21:25:00,
2013-09-27 17:30:00,63.2,54.0,30.20,NE,51,0.0,0.0,72,0.00,,,0.00,49,Wunderground v.1.15,2013-09-27 21:30:00,
2013-09-27 17:35:00,63.2,54.4,30.20,NE,51,0.0,0.0,73,0.00,,,0.00,39,Wunderground v.1.15,2013-09-27 21:35:00,
2013-09-27 17:44:00,63.1,54.3,30.20,NW,322,0.0,0.0,73,0.00,,,0.00,26,Wunderground v.1.15,2013-09-27 21:44:00,
2013-09-27 17:50:00,63.0,54.2,30.20,North,5,0.0,1.0,73,0.00,,,0.00,25,Wunderground v.1.15,2013-09-27 21:50:00,
2013-09-27 17:55:00,63.0,54.6,30.20,NE,36,0.0,1.0,74,0.00,,,0.00,19,Wunderground v.1.15,2013-09-27 21:55:00,
2013-09-27 18:05:00,62.7,54.3,30.20,NNE,25,0.0,1.0,74,0.00,,,0.00,14,Wunderground v.1.15,2013-09-27 22:05:00,
2013-09-27 18:10:00,62.7,54.7,30.21,NE,48,0.0,0.0,75,0.00,,,0.00,9,Wunderground v.1.15,2013-09-27 22:10:00,
2013-09-27 18:20:00,62.5,54.5,30.21,North,355,0.0,0.0,75,0.00,,,0.00,5,Wunderground v.1.15,2013-09-27 22:20:00,
2013-09-27 18:25:00,62.4,54.4,30.21,NNW,328,0.0,1.0,75,0.00,,,0.00,5,Wunderground v.1.15,2013-09-27 22:25:00,
2013-09-27 18:35:00,62.3,54.3,30.21,NNW,334,0.0,0.0,75,0.00,,,0.00,0,Wunderground v.1.15,2013-09-27 22:35:00,
2013-09-27 18:40:00,62.2,54.2,30.21,WNW,292,0.0,1.0,75,0.00,,,0.00,0,Wunderground v.1.15,2013-09-27 22:40:00,
2013-09-27 18:50:00,62.1,54.4,30.21,SSE,153,0.0,0.0,76,0.00,,,0.00,0,Wunderground v.1.15,2013-09-27 22:50:00,
2013-09-27 18:55:00,61.9,54.2,30.21,North,5,0.0,1.0,76,0.00,,,0.00,0,Wunderground v.1.15,2013-09-27 22:55:00,
2013-09-27 19:05:00,61.7,54.4,30.21,East,79,0.0,0.0,77,0.00,,,0.00,0,Wunderground v.1.15,2013-09-27 23:05:00,
2013-09-27 19:10:00,61.6,54.0,30.21,WSW,245,0.0,0.0,76,0.00,,,0.00,0,Wunderground v.1.15,2013-09-27 23:10:00,
2013-09-27 19:20:00,61.4,53.8,30.21,ENE,67,0.0,0.0,76,0.00,,,0.00,0,Wunderground v.1.15,2013-09-27 23:20:00,
2013-09-27 19:30:00,61.3,54.0,30.22,NNE,28,0.0,0.0,77,0.00,,,0.00,0,Wunderground v.1.15,2013-09-27 23:30:00,
2013-09-27 19:35:00,61.3,54.0,30.22,ENE,71,0.0,0.0,77,0.00,,,0.00,0,Wunderground v.1.15,2013-09-27 23:35:00,
2013-09-27 19:40:00,61.3,54.0,30.22,NW,321,0.0,2.0,77,0.00,,,0.00,0,Wunderground v.1.15,2013-09-27 23:40:00,
2013-09-27 19:50:00,61.4,53.8,30.22,NE,47,1.0,1.0,76,0.00,,,0.00,0,Wunderground v.1.15,2013-09-27 23:50:00,
2013-09-27 20:00:00,61.5,53.9,30.23,NE,55,1.0,1.0,76,0.00,,,0.00,0,Wunderground v.1.15,2013-09-28 00:00:00,
2013-09-27 20:05:00,61.6,54.0,30.22,ENE,68,1.0,1.0,76,0.00,,,0.00,0,Wunderground v.1.15,2013-09-28 00:05:00,
2013-09-27 20:10:00,61.7,53.7,30.23,NE,55,1.0,1.0,75,0.00,,,0.00,0,Wunderground v.1.15,2013-09-28 00:10:00,
2013-09-27 20:20:00,61.8,54.2,30.23,NE,49,1.0,1.0,76,0.00,,,0.00,0,Wunderground v.1.15,2013-09-28 00:20:00,
2013-09-27 20:25:00,61.8,54.2,30.23,ENE,57,0.0,1.0,76,0.00,,,0.00,0,Wunderground v.1.15,2013-09-28 00:25:00,
2013-09-27 20:35:00,61.8,54.2,30.23,East,80,0.0,1.0,76,0.00,,,0.00,0,Wunderground v.1.15,2013-09-28 00:35:00,
2013-09-27 20:45:00,61.8,54.2,30.23,East,101,2.0,3.0,76,0.00,,,0.00,0,Wunderground v.1.15,2013-09-28 00:45:00,
2013-09-27 20:55:00,61.8,54.5,30.24,ENE,63,1.0,3.0,77,0.00,,,0.00,0,Wunderground v.1.15,2013-09-28 00:55:00,
2013-09-27 21:00:00,61.8,54.5,30.24,ENE,57,1.0,2.0,77,0.00,,,0.00,0,Wunderground v.1.15,2013-09-28 01:00:00,
2013-09-27 21:05:00,61.8,54.5,30.24,ENE,61,1.0,2.0,77,0.00,,,0.00,0,Wunderground v.1.15,2013-09-28 01:05:00,
2013-09-27 21:15:00,61.6,54.7,30.24,ENE,75,1.0,1.0,78,0.00,,,0.00,0,Wunderground v.1.15,2013-09-28 01:15:00,
2013-09-27 21:25:00,61.4,54.8,30.24,ENE,76,0.0,0.0,79,0.00,,,0.00,0,Wunderground v.1.15,2013-09-28 01:25:00,
2013-09-27 21:35:00,61.1,54.9,30.24,ENE,76,0.0,0.0,80,0.00,,,0.00,0,Wunderground v.1.15,2013-09-28 01:35:00,
2013-09-27 21:40:00,60.9,54.7,30.25,ENE,76,0.0,0.0,80,0.00,,,0.00,0,Wunderground v.1.15,2013-09-28 01:40:00,
2013-09-27 21:50:00,60.8,54.9,30.25,East,81,0.0,0.0,81,0.00,,,0.00,0,Wunderground v.1.15,2013-09-28 01:50:00,
2013-09-27 21:55:00,60.7,55.2,30.25,ESE,103,0.0,0.0,82,0.00,,,0.00,0,Wunderground v.1.15,2013-09-28 01:55:00,
2013-09-27 22:05:00,60.8,55.3,30.25,East,97,0.0,2.0,82,0.00,,,0.00,0,Wunderground v.1.15,2013-09-28 02:05:00,
2013-09-27 22:10:00,60.9,55.4,30.25,East,82,0.0,0.0,82,0.00,,,0.00,0,Wunderground v.1.15,2013-09-28 02:10:00,
2013-09-27 22:20:00,61.1,55.6,30.26,East,84,1.0,1.0,82,0.00,,,0.00,0,Wunderground v.1.15,2013-09-28 02:20:00,
2013-09-27 22:30:00,61.0,55.5,30.26,East,83,0.0,0.0,82,0.00,,,0.00,0,Wunderground v.1.15,2013-09-28 02:30:00,
2013-09-27 22:40:00,60.7,55.5,30.26,East,83,0.0,0.0,83,0.00,,,0.00,0,Wunderground v.1.15,2013-09-28 02:40:00,
2013-09-27 22:45:00,60.4,55.2,30.26,East,83,0.0,0.0,83,0.00,,,0.00,0,Wunderground v.1.15,2013-09-28 02:45:00,
2013-09-27 22:50:00,60.2,55.0,30.26,East,83,0.0,0.0,83,0.00,,,0.00,0,Wunderground v.1.15,2013-09-28 02:50:00,
2013-09-27 22:55:00,59.8,55.0,30.26,East,83,0.0,0.0,84,0.00,,,0.00,0,Wunderground v.1.15,2013-09-28 02:55:00,
2013-09-27 23:05:00,59.3,54.5,30.26,East,83,0.0,0.0,84,0.00,,,0.00,0,Wunderground v.1.15,2013-09-28 03:05:00,
2013-09-27 23:10:00,58.9,54.4,30.26,East,83,0.0,0.0,85,0.00,,,0.00,0,Wunderground v.1.15,2013-09-28 03:10:00,
2013-09-27 23:20:00,58.1,53.9,30.26,East,83,0.0,0.0,86,0.00,,,0.00,0,Wunderground v.1.15,2013-09-28 03:20:00,
2013-09-27 23:30:00,57.4,53.6,30.26,East,83,0.0,0.0,87,0.00,,,0.00,0,Wunderground v.1.15,2013-09-28 03:30:00,
2013-09-27 23:40:00,56.8,53.3,30.26,East,83,0.0,0.0,88,0.00,,,0.00,0,Wunderground v.1.15,2013-09-28 03:40:00,
2013-09-27 23:45:00,56.4,52.9,30.26,East,83,0.0,0.0,88,0.00,,,0.00,0,Wunderground v.1.15,2013-09-28 03:45:00,
2013-09-27 23:55:00,56.0,52.8,30.27,East,83,0.0,0.0,89,0.00,,,0.00,0,Wunderground v.1.15,2013-09-28 03:55:00,